Location: Chandrammap?lem
(16.9200°N, 81.0051°E)
Time: 04:54:30
(UTC+00:00)

CENTAUR R/B - Pass Details

Date: 29 May 2024
Orbit: 668 x 1517 km, 63.4° (Epoch: 19 June)

Event Time Altitude Azimuth Distance (km) Brightness Sun altitude
Exits shadow 22:31:38 34° 274° (W) 1,214 2.6 -20.0°
Maximum altitude 22:32:37 38° 300° (WNW) 1,167 2.7 -19.8°
Drops below altitude 10° 22:37:51 10° 7° (N) 2,517 5.2 -18.8°
Sets 22:40:46 0° 15° (NNE) 3,594 6.2 -18.2°
